Regional Weather Roundup
Issued by NWS Northern Indiana

Home | Current Version | Previous Version | Graphics & Text | Print | Product List | Glossary On
Versions: 1 2 3 4 5 6 7 8 9 10 11 12 13 14 15 16 17 18 19 20 21 22 23 24 25 26 27 28 29 30 31 32 33 34 35 36 37 38 39 40 41 42 43 44 45 46 47 48 49 50
000
ASUS43 KIWX 232300
RWRIWX

KIWX WEATHER ROUNDUP
NATIONAL WEATHER SERVICE NORTHERN INDIANA
700 PM EDT SAT MAY 23 2015

NOTE: "FAIR" INDICATES FEW OR NO CLOUDS BELOW 12,000 FEET WITH NO
SIGNIFICANT WEATHER AND/OR OBSTRUCTIONS TO VISIBILITY.

* THESE STATIONS ARE NOT UNDER NWS QUALITY CONTROL. THEY ALSO MAY NOT
  REPORT WEATHER SUCH AS PRECIPITATION OR FOG.

INZ001>027-240000-
NORTHERN INDIANA

CITY           SKY/WX    TMP DP  RH WIND       PRES   REMARKS
SOUTH BEND     PTSUNNY   80  39  23 S8        30.23F
GOSHEN         SUNNY     76  46  34 W7        30.23F
ANGOLA*        SUNNY     77  70  78 W6        30.26F
FORT WAYNE     MOSUNNY   78  46  32 SW5       30.26F

$$
INZ028>050-240000-
CENTRAL INDIANA

CITY           SKY/WX    TMP DP  RH WIND       PRES   REMARKS
LAFAYETTE      SUNNY     77  44  30 S6        30.23F
KOKOMO*        SUNNY     77  45  31 S8        30.24F
MUNCIE*        MOSUNNY   79  41  25 S8        30.26F
INDIANAPOLIS   PTSUNNY   77  43  29 S10       30.24F

$$
MIZ043>046-050>051-056>058-064>065-071>073-077>080-240000-
SOUTHWEST LOWER MICHIGAN

CITY           SKY/WX    TMP DP  RH WIND       PRES   REMARKS
BATTLE CREEK   SUNNY     76  42  29 W7        30.26F
BENTON HARBOR  SUNNY     74  42  31 VRB5      30.23F
COLDWATER*     SUNNY     75  39  27 SW5       30.26F
HILLSDALE*     SUNNY     76  38  25 SW8       30.28S
HOLLAND        SUNNY     75  41  29 SW12      30.26S
GRAND RAPIDS   MOSUNNY   77  36  22 W14       30.25F
KALAMAZOO      SUNNY     77  41  27 W7        30.25F
STURGIS*       MOSUNNY   75  45  33 S3        30.24F
THREE RIVERS*  FAIR      76  43  30 SW3       30.25F

$$
OHZ001>008-015>018-024>025-240000-
NORTHWEST OHIO

CITY           SKY/WX    TMP DP  RH WIND       PRES   REMARKS
DEFIANCE       SUNNY     78  41  26 SW6       30.27S
FINDLAY        MOSUNNY   78  42  27 S5        30.26F
TOLEDO EXPRESS SUNNY     77  38  24 W9        30.27F
TOLEDO METCALF SUNNY     74  40  29 E9        30.28F
LIMA           MOSUNNY   76  43  30 S3        30.28F

$$
AND FOR LAKE MICHIGAN COASTAL AND OPEN LAKE BUOY OBSERVATIONS

STATION/POSITION TEMP    WIND        PRES    VSBY  WAVE
                 AIR SEA DIR/SP/G                  HT/PER
                 (F)     (DEG/KT/KT) (MB)    (MI)  (FT/S)
CALUMET HARBOR    63      80/  4/  9   N/A
MICHIGAN CITY     60      40/ 14/ 14   N/A
BURNS HARBOR      63      80/ 13/ 15 1023.4S
SAINT JOSEPH      70     360/  5/  8 1024.0F
SOUTH LAKE BUOY   49 38   90/  8/  8 1024.4F         0
4 MI NW BRIDGMAN  60 55   70/  8/  8   N/A           1
MICHIGAN CITY     57 54   80/  6/  6   N/A           1
MICHIGAN CITY CG     61                N/A           1

$$
&&


USA.gov is the U.S. government's official web portal to all federal, state and local government web resources and services.